Wind_Speed
4 4 4 4 5 4 4 4 3 3 2 2 2 2 2 1 1 1 1 1 0 0 0 1 1 1 1 2 2 1 1 0 0 1 1 2 2 2 3 3 3 3 3
5 4 5 5 5 5 5 4 4 4 3 3 3 3 3 2 2 2 2 2 2 1 1 1 2 2 2 3 3 3 2 2 2 2 2 2 2 3 3 4 4 4 4
5 5 6 6 6 6 5 5 5 4 4 4 4 4 4 4 4 3 3 4 3 3 3 3 3 4 4 4 5 5 4 4 3 4 3 3 3 4 4 4 4 5 5
6 6 7 7 7 6 6 6 6 6 6 5 5 5 6 5 5 5 5 5 5 5 5 5 5 5 5 6 6 6 6 5 5 4 4 4 5 5 6 6 5 6 6
7 7 7 8 7 7 7 7 7 7 7 7 7 6 7 7 7 6 6 6 6 6 6 6 6 6 7 7 7 7 7 6 6 6 5 6 6 6 6 7 7 7 8
7 7 7 7 8 8 8 8 8 9 8 8 8 7 7 8 7 7 7 7 7 7 7 6 7 7 7 7 7 7 7 8 7 7 7 6 7 7 7 8 8 8 8
8 8 7 7 8 8 8 9 9 9 9 8 8 8 8 8 8 9 9 9 8 8 8 8 8 8 8 8 8 8 8 8 8 8 8 8 8 8 8 9 9 9 9
8 8 8 8 8 9 9 9 9 9 8 9 8 8 8 9 9 9 9 9 9 9 9 9 9 9 9 9 9 10 10 10 10 9 10 9 9 9 8 9 10 9 9
7 7 8 8 8 9 9 9 9 9 8 8 8 9 9 10 9 9 9 10 10 10 10 10 9 9 9 9 9 10 10 10 10 10 9 9 9 9 9 9 10 10 10
7 7 7 8 8 9 9 9 9 9 8 8 9 9 10 10 10 10 9 10 10 10 10 10 10 10 10 9 10 10 10 10 10 10 10 9 9 9 10 10 10 11 10
5 6 6 6 7 8 8 9 9 9 9 9 9 9 9 9 9 9 9 10 10 10 11 11 11 11 11 11 11 11 11 10 11 10 10 10 10 10 10 10 10 10 11
5 5 5 6 6 6 7 7 8 8 9 9 9 9 9 9 9 9 10 10 10 10 11 11 12 12 12 12 12 11 11 11 11 11 11 11 11 10 10 10 10 10 11
4 4 5 6 6 6 6 7 7 8 8 9 9 9 9 9 9 9 10 10 10 10 10 11 11 11 12 12 12 12 12 11 11 11 11 11 11 11 11 10 10 10 11
4 4 5 5 6 6 6 7 7 7 8 8 8 8 9 8 9 9 10 10 10 10 10 11 11 12 12 11 12 12 11 11 11 11 11 11 12 12 11 11 11 11 11
5 5 5 5 5 5 6 6 7 7 8 8 8 8 9 9 9 10 10 10 10 10 10 10 11 11 11 11 12 12 12 12 12 12 12 12 12 12 12 12 12 12 12
6 6 6 5 5 6 6 6 6 7 7 8 8 8 9 9 10 10 11 11 10 10 10 10 10 11 11 11 12 12 13 12 12 12 12 12 12 12 12 13 12 12 12
7 6 6 6 6 6 7 7 7 7 7 7 8 8 9 9 9 10 10 11 11 11 11 10 11 11 11 11 12 12 12 12 12 12 12 12 13 13 13 13 13 13 13
7 7 7 7 7 7 7 7 7 7 7 8 8 8 8 8 9 10 10 10 11 11 11 11 11 11 11 12 12 12 12 12 12 11 12 12 12 12 13 13 13 13 13
7 8 7 7 7 7 7 7 8 8 8 8 8 8 9 9 9 9 9 10 11 11 11 10 10 11 11 11 12 12 12 12 12 12 12 12 12 13 13 13 13 13 13
7 8 8 7 7 7 7 7 8 8 8 8 8 8 8 9 9 10 10 11 11 11 11 11 11 12 12 12 12 12 11 12 12 12 12 12 12 13 13 13 13 13 13
8 8 8 8 8 8 8 8 8 8 9 8 8 9 9 10 10 10 10 11 11 12 12 12 12 12 12 12 13 13 13 13 13 12 12 11 12 13 13 14 14 14 14
8 8 9 9 9 9 9 10 9 9 9 9 10 10 10 10 10 10 11 11 12 12 12 12 12 12 12 13 13 13 14 14 14 13 13 13 13 13 14 14 14 15 15
9 9 10 10 11 11 11 10 10 10 10 10 11 11 11 11 11 11 12 12 12 12 12 12 12 12 13 13 13 13 14 15 15 15 15 14 15 15 14 15 15 15 16
11 11 11 11 12 11 10 11 11 11 11 12 12 12 12 12 13 13 13 13 13 13 13 12 13 13 13 13 13 13 13 14 15 15 15 15 15 15 15 15 15 16 16
11 12 12 12 13 12 12 12 12 12 12 13 13 13 14 14 14 14 14 14 14 14 14 14 14 14 14 14 13 14 14 14 15 15 16 16 16 16 16 16 16 16 16
11 12 12 12 13 13 13 13 13 14 14 14 14 14 15 15 15 15 15 16 16 15 15 15 15 15 14 14 14 14 15 15 16 16 16 16 17 17 16 16 17 17 16
Wind_Direction
204 203 219 228 226 221 214 215 210 210 202 210 214 204 180 176 197 191 226 232 233 40 48 148 169 214 244 238 235 224 178 87 260 207 184 205 220 225 222 219 213 207 210
210 215 227 230 226 228 227 230 226 220 216 223 229 231 230 236 242 235 246 261 259 258 242 240 238 235 241 242 247 252 248 259 271 262 247 248 252 247 238 232 227 225 223
217 222 229 231 230 235 236 238 234 231 227 232 236 237 240 251 258 257 261 262 255 253 255 255 245 242 252 254 251 253 255 257 269 272 262 254 250 252 250 247 242 240 243
224 230 232 233 235 236 239 245 245 245 240 240 242 243 244 249 251 257 264 267 263 258 260 258 253 252 259 261 258 254 252 257 265 264 266 269 262 259 259 254 245 251 253
230 235 238 238 240 239 240 246 247 248 246 247 251 255 252 249 249 253 260 263 263 262 264 259 255 256 262 264 262 261 258 261 265 267 266 265 263 264 263 254 250 256 259
234 239 242 243 243 243 246 249 250 250 248 249 249 255 256 254 254 254 257 259 261 264 265 264 264 265 268 267 265 264 263 262 265 268 266 262 259 261 260 249 251 255 262
240 242 243 243 244 247 250 249 248 247 250 250 250 251 255 259 260 258 256 260 263 264 263 262 264 264 265 265 263 262 264 264 269 269 264 265 264 265 260 252 249 255 263
244 243 243 244 247 249 251 249 248 248 250 248 249 252 254 256 258 262 260 265 265 264 262 262 263 262 264 263 262 261 260 267 269 267 265 266 268 268 263 257 254 259 266
250 246 245 247 251 254 254 253 247 246 248 249 250 252 255 256 256 259 263 266 266 264 264 263 264 264 265 266 264 261 263 266 267 266 267 268 268 268 265 260 258 261 264
251 248 247 250 253 253 254 252 247 246 245 248 252 254 254 254 254 259 264 265 265 265 266 266 268 266 263 264 263 262 262 264 264 265 266 265 266 268 269 269 268 268 271
255 253 254 250 250 250 254 250 244 247 248 249 252 252 251 254 259 261 262 263 264 266 266 265 265 264 264 263 263 265 263 263 264 264 265 265 265 265 266 267 268 267 269
260 257 254 251 249 246 251 250 243 246 250 251 252 253 253 256 258 260 261 263 265 265 265 265 263 262 262 264 263 261 263 264 263 263 263 264 264 264 265 265 267 268 270
264 262 259 258 256 250 245 242 246 248 250 250 249 252 255 258 259 261 263 263 265 265 263 261 261 261 261 263 262 261 260 261 262 262 261 262 262 262 264 263 265 268 270
266 266 266 265 261 254 246 244 246 247 249 252 255 254 256 258 259 262 265 267 266 266 264 262 261 259 262 263 264 264 261 262 260 259 261 263 262 261 261 261 266 269 269
269 268 273 275 269 262 257 253 252 249 250 253 257 261 261 260 262 263 266 272 270 268 266 262 260 261 262 264 264 263 264 263 263 260 261 262 262 261 260 262 265 268 269
269 268 268 271 271 272 270 263 258 253 252 253 256 260 262 261 261 263 266 269 269 267 266 264 264 265 265 265 266 266 264 262 262 260 259 261 262 261 261 262 264 265 266
264 267 268 266 265 268 270 265 260 259 256 256 258 261 261 259 261 264 266 268 268 269 268 267 265 264 265 266 267 265 263 261 261 259 258 260 261 260 261 260 261 263 266
265 267 268 263 261 262 265 265 263 263 261 260 260 262 261 259 261 264 266 267 267 267 268 268 268 268 266 266 265 265 263 259 260 260 260 260 261 260 261 260 261 262 265
270 266 264 261 261 262 262 264 264 264 262 260 260 260 261 262 262 265 268 268 267 267 269 270 272 272 270 267 267 266 265 260 259 262 263 261 260 260 261 262 263 263 264
271 268 263 259 259 262 264 265 265 262 259 258 259 262 266 268 268 268 269 269 268 268 270 271 271 271 270 268 268 268 267 264 261 264 263 260 260 261 263 264 264 263 265
272 268 262 259 261 267 268 268 268 263 260 259 261 263 266 268 270 271 272 272 270 268 269 269 269 269 269 268 270 269 266 264 263 263 262 260 262 263 265 265 265 266 268
269 266 263 260 262 266 268 268 268 267 265 265 265 268 271 271 272 273 274 274 272 269 267 266 268 269 269 271 274 271 267 264 262 261 262 262 263 265 266 267 267 269 271
261 263 261 259 260 263 263 263 264 264 264 265 266 270 272 273 273 273 273 273 272 271 268 267 268 270 272 272 273 272 269 264 263 262 262 262 263 265 268 270 269 270 272
260 262 265 264 264 266 266 265 265 265 266 267 269 271 273 274 273 273 273 272 271 271 270 268 270 272 273 273 274 271 269 265 262 261 262 264 265 264 266 270 270 270 273
263 264 265 268 265 267 268 267 266 265 264 266 270 272 273 273 274 273 273 273 271 271 269 267 269 272 273 273 273 271 269 267 263 263 266 267 267 265 267 270 271 272 274
267 267 267 268 267 265 265 266 265 265 265 268 269 271 273 275 275 275 273 274 274 272 271 270 270 270 271 273 274 273 270 269 266 265 266 267 267 267 268 270 271 274 277
Height
5865 5865 5865 5866 5866 5867 5867 5867 5868 5868 5869 5869 5870 5870 5871 5872 5872 5873 5873 5873 5874 5874 5874 5875 5875 5876 5876 5877 5877 5877 5878 5878 5878 5878 5878 5879 5879 5880 5880 5881 5881 5881 5882
5864 5864 5865 5865 5866 5866 5866 5867 5867 5868 5868 5869 5869 5870 5871 5871 5872 5872 5873 5873 5874 5874 5874 5875 5875 5876 5876 5877 5877 5877 5878 5878 5878 5878 5878 5879 5879 5880 5880 5880 5881 5881 5882
5863 5864 5864 5865 5865 5865 5866 5866 5866 5867 5868 5868 5869 5870 5870 5871 5871 5872 5872 5873 5873 5874 5874 5875 5875 5875 5876 5876 5877 5877 5877 5877 5877 5877 5878 5878 5879 5879 5879 5880 5880 5880 5881
5862 5863 5863 5864 5864 5865 5865 5865 5866 5866 5867 5867 5868 5869 5869 5870 5871 5871 5872 5872 5872 5873 5874 5874 5874 5875 5875 5875 5876 5876 5876 5877 5877 5877 5877 5878 5878 5878 5879 5878 5879 5880 5880
5861 5861 5862 5862 5863 5864 5864 5864 5865 5865 5866 5866 5867 5867 5868 5869 5869 5870 5871 5871 5871 5872 5872 5873 5873 5874 5874 5874 5875 5875 5875 5876 5876 5876 5876 5877 5877 5877 5878 5877 5878 5879 5879
5860 5860 5861 5861 5861 5862 5862 5863 5863 5864 5864 5865 5866 5866 5867 5867 5868 5868 5869 5870 5870 5871 5871 5872 5872 5872 5873 5873 5873 5874 5874 5875 5875 5875 5876 5876 5876 5876 5876 5877 5877 5877 5878
5858 5859 5859 5859 5860 5860 5861 5861 5862 5862 5863 5864 5864 5865 5865 5866 5866 5867 5868 5868 5869 5869 5870 5870 5871 5871 5871 5872 5872 5872 5873 5873 5874 5874 5874 5874 5875 5875 5875 5875 5875 5876 5876
5857 5857 5858 5858 5858 5858 5859 5859 5860 5860 5861 5862 5862 5863 5864 5865 5865 5865 5866 5866 5867 5868 5868 5869 5869 5869 5870 5870 5870 5871 5871 5872 5872 5872 5873 5873 5873 5873 5873 5873 5873 5874 5874
5855 5855 5856 5856 5856 5856 5856 5857 5858 5858 5859 5860 5861 5862 5862 5863 5863 5864 5864 5865 5865 5866 5866 5867 5867 5868 5868 5868 5869 5869 5869 5870 5870 5871 5871 5871 5871 5872 5871 5871 5872 5872 5872
5854 5854 5854 5854 5854 5854 5853 5854 5855 5856 5858 5859 5859 5860 5861 5861 5862 5862 5863 5863 5863 5864 5864 5865 5865 5866 5866 5866 5867 5867 5868 5868 5868 5869 5869 5869 5870 5870 5870 5870 5870 5870 5870
5852 5852 5853 5852 5852 5852 5851 5851 5852 5855 5856 5857 5857 5858 5859 5859 5860 5860 5861 5861 5861 5862 5862 5863 5863 5863 5864 5864 5864 5865 5865 5866 5866 5867 5867 5867 5867 5868 5868 5868 5868 5868 5868
5851 5851 5851 5851 5851 5850 5850 5850 5851 5853 5854 5855 5856 5856 5857 5857 5858 5858 5859 5859 5859 5860 5860 5860 5860 5861 5861 5862 5862 5862 5863 5863 5864 5864 5865 5865 5865 5865 5866 5866 5866 5866 5866
5850 5850 5850 5850 5850 5849 5849 5850 5850 5852 5852 5853 5854 5854 5855 5856 5856 5856 5857 5857 5858 5858 5858 5858 5858 5859 5859 5859 5859 5860 5860 5860 5861 5861 5862 5862 5862 5863 5863 5864 5864 5864 5864
5849 5849 5849 5849 5849 5849 5849 5850 5850 5850 5851 5851 5852 5853 5853 5854 5854 5855 5855 5855 5855 5856 5856 5856 5856 5857 5857 5857 5857 5857 5857 5858 5858 5859 5859 5859 5860 5860 5860 5861 5861 5861 5861
5848 5848 5848 5848 5848 5848 5849 5849 5849 5849 5850 5850 5851 5851 5852 5852 5853 5853 5853 5853 5853 5853 5854 5854 5854 5854 5854 5854 5855 5855 5855 5855 5855 5856 5857 5857 5857 5857 5858 5858 5858 5859 5859
5847 5847 5847 5847 5847 5847 5847 5847 5848 5848 5848 5848 5849 5849 5850 5850 5851 5851 5851 5851 5851 5851 5851 5851 5852 5852 5852 5852 5852 5852 5852 5853 5853 5853 5854 5854 5854 5854 5855 5855 5856 5856 5856
5845 5845 5846 5846 5846 5846 5846 5846 5846 5846 5847 5847 5847 5848 5848 5848 5849 5849 5849 5849 5849 5849 5849 5849 5849 5849 5849 5849 5850 5850 5850 5850 5850 5850 5851 5851 5851 5852 5852 5852 5853 5853 5854
5844 5844 5844 5844 5844 5844 5845 5845 5845 5845 5845 5845 5845 5846 5846 5846 5846 5847 5847 5847 5847 5847 5847 5847 5847 5847 5847 5847 5847 5847 5847 5847 5847 5847 5848 5848 5849 5849 5849 5850 5850 5850 5851
5842 5842 5842 5842 5843 5843 5843 5843 5843 5843 5843 5843 5843 5844 5844 5844 5844 5844 5844 5844 5844 5844 5844 5844 5844 5844 5844 5844 5844 5844 5844 5844 5844 5845 5845 5845 5846 5846 5847 5847 5847 5847 5847
5841 5841 5841 5841 5841 5841 5841 5841 5842 5842 5842 5842 5842 5842 5842 5842 5842 5842 5842 5842 5841 5841 5841 5841 5841 5841 5841 5841 5841 5841 5841 5841 5841 5842 5842 5842 5843 5843 5844 5844 5844 5844 5845
5839 5839 5839 5839 5839 5839 5840 5840 5840 5840 5840 5840 5840 5840 5840 5839 5839 5839 5839 5839 5839 5839 5839 5838 5838 5838 5838 5838 5838 5838 5838 5838 5839 5839 5839 5839 5840 5840 5840 5841 5841 5841 5841
5836 5837 5837 5837 5837 5837 5837 5837 5837 5837 5837 5837 5837 5837 5837 5837 5837 5836 5836 5836 5836 5836 5835 5835 5835 5835 5835 5835 5835 5835 5835 5836 5835 5836 5836 5836 5836 5837 5837 5837 5838 5838 5838
5834 5834 5834 5834 5834 5834 5834 5834 5834 5834 5835 5835 5835 5835 5834 5834 5834 5833 5833 5833 5832 5832 5832 5832 5832 5832 5832 5832 5832 5832 5832 5832 5832 5832 5832 5832 5833 5833 5833 5834 5834 5834 5834
5832 5832 5832 5832 5832 5832 5832 5832 5832 5832 5832 5832 5832 5831 5831 5831 5830 5830 5829 5829 5829 5829 5828 5828 5828 5828 5828 5828 5828 5828 5828 5828 5828 5828 5829 5829 5829 5829 5830 5830 5830 5830 5830
5829 5829 5829 5829 5829 5829 5829 5829 5829 5829 5828 5828 5828 5828 5827 5827 5827 5826 5826 5825 5825 5825 5824 5825 5825 5825 5824 5824 5824 5824 5824 5824 5824 5824 5825 5825 5825 5825 5825 5826 5826 5826 5826
5826 5826 5826 5825 5825 5825 5825 5825 5825 5825 5825 5825 5825 5824 5824 5823 5823 5822 5821 5821 5821 5820 5820 5820 5820 5820 5820 5820 5820 5820 5820 5820 5820 5820 5820 5820 5821 5821 5821 5821 5821 5821 5821